QPF
0.00 0.00 0.00 0.00 0.00 0.00 0.00 0.00 0.00 0.00 0.00 0.00 0.00 0.00 0.00 0.00 0.00 0.00 0.00 0.00 0.00 0.00 0.00 0.00 0.00 0.00 0.00 0.00 0.00 0.00 0.00 0.00 0.00 0.00 0.00 0.00 0.00 0.00 0.00 0.00 0.00 0.00 0.00 0.00 0.00
0.00 0.00 0.00 0.00 0.00 0.00 0.00 0.00 0.00 0.00 0.00 0.00 0.00 0.00 0.00 0.00 0.00 0.00 0.00 0.00 0.00 0.00 0.00 0.00 0.00 0.00 0.00 0.00 0.00 0.00 0.00 0.00 0.00 0.00 0.00 0.00 0.00 0.00 0.00 0.00 0.00 0.00 0.00 0.00 0.00
0.00 0.00 0.00 0.00 0.00 0.00 0.00 0.00 0.00 0.00 0.00 0.00 0.00 0.00 0.00 0.00 0.00 0.00 0.00 0.00 0.00 0.00 0.00 0.00 0.00 0.00 0.00 0.00 0.00 0.00 0.00 0.00 0.00 0.00 0.00 0.00 0.00 0.00 0.00 0.00 0.00 0.00 0.00 0.00 0.00
0.00 0.00 0.00 0.00 0.00 0.00 0.00 0.00 0.00 0.00 0.00 0.00 0.00 0.00 0.00 0.00 0.00 0.00 0.00 0.00 0.00 0.00 0.00 0.00 0.00 0.00 0.00 0.00 0.00 0.00 0.00 0.00 0.00 0.00 0.00 0.00 0.00 0.00 0.00 0.00 0.00 0.00 0.00 0.00 0.00
0.00 0.00 0.00 0.00 0.00 0.00 0.00 0.00 0.00 0.00 0.00 0.00 0.00 0.00 0.00 0.00 0.00 0.00 0.00 0.00 0.00 0.00 0.00 0.00 0.00 0.00 0.00 0.00 0.00 0.00 0.00 0.00 0.00 0.00 0.00 0.00 0.00 0.00 0.00 0.00 0.00 0.00 0.00 0.00 0.00
0.00 0.00 0.00 0.00 0.00 0.00 0.00 0.00 0.00 0.00 0.00 0.00 0.00 0.00 0.00 0.00 0.00 0.00 0.00 0.00 0.00 0.00 0.00 0.00 0.00 0.00 0.00 0.00 0.00 0.00 0.00 0.00 0.00 0.00 0.00 0.00 0.00 0.00 0.00 0.00 0.00 0.00 0.00 0.00 0.00
0.00 0.00 0.00 0.00 0.00 0.00 0.00 0.00 0.00 0.00 0.00 0.00 0.00 0.00 0.00 0.00 0.00 0.00 0.00 0.00 0.00 0.00 0.00 0.00 0.00 0.00 0.00 0.00 0.00 0.00 0.00 0.00 0.00 0.00 0.00 0.00 0.00 0.00 0.00 0.00 0.00 0.00 0.00 0.00 0.00
0.00 0.00 0.00 0.00 0.00 0.00 0.00 0.00 0.00 0.00 0.00 0.00 0.00 0.00 0.00 0.00 0.00 0.00 0.00 0.00 0.00 0.00 0.00 0.00 0.00 0.00 0.00 0.00 0.00 0.00 0.00 0.00 0.00 0.00 0.00 0.00 0.00 0.00 0.00 0.00 0.00 0.00 0.00 0.00 0.00
0.00 0.00 0.00 0.00 0.00 0.00 0.00 0.00 0.00 0.00 0.00 0.00 0.00 0.00 0.00 0.00 0.00 0.00 0.00 0.00 0.00 0.00 0.00 0.00 0.00 0.00 0.00 0.00 0.00 0.00 0.00 0.00 0.00 0.00 0.00 0.00 0.00 0.00 0.00 0.00 0.00 0.00 0.00 0.00 0.00
0.00 0.00 0.00 0.00 0.00 0.00 0.00 0.00 0.00 0.00 0.00 0.00 0.00 0.00 0.00 0.00 0.00 0.00 0.00 0.00 0.00 0.00 0.00 0.00 0.00 0.00 0.00 0.00 0.00 0.00 0.00 0.00 0.00 0.00 0.00 0.00 0.00 0.00 0.00 0.00 0.00 0.00 0.00 0.00 0.00
0.00 0.00 0.00 0.00 0.00 0.00 0.00 0.00 0.00 0.00 0.00 0.00 0.00 0.00 0.00 0.00 0.00 0.00 0.00 0.00 0.00 0.00 0.00 0.00 0.00 0.00 0.00 0.00 0.00 0.00 0.00 0.00 0.00 0.00 0.00 0.00 0.00 0.00 0.00 0.00 0.00 0.00 0.00 0.00 0.00
0.00 0.00 0.00 0.00 0.00 0.00 0.00 0.00 0.00 0.00 0.00 0.00 0.00 0.00 0.00 0.00 0.00 0.00 0.00 0.00 0.00 0.00 0.00 0.00 0.00 0.00 0.00 0.00 0.00 0.00 0.00 0.00 0.00 0.00 0.00 0.00 0.00 0.00 0.00 0.00 0.00 0.00 0.00 0.00 0.00
0.00 0.00 0.00 0.00 0.00 0.00 0.00 0.00 0.00 0.00 0.00 0.00 0.00 0.00 0.00 0.00 0.00 0.00 0.00 0.00 0.00 0.00 0.00 0.00 0.00 0.00 0.00 0.00 0.00 0.00 0.00 0.00 0.00 0.00 0.00 0.00 0.00 0.00 0.00 0.00 0.00 0.00 0.00 0.00 0.00
0.00 0.00 0.00 0.00 0.00 0.00 0.00 0.00 0.00 0.00 0.00 0.00 0.00 0.00 0.00 0.00 0.00 0.00 0.00 0.00 0.00 0.00 0.00 0.00 0.00 0.00 0.00 0.00 0.00 0.00 0.00 0.00 0.00 0.00 0.00 0.00 0.00 0.00 0.00 0.00 0.00 0.00 0.00 0.00 0.00
0.00 0.00 0.00 0.00 0.00 0.00 0.00 0.00 0.00 0.00 0.00 0.00 0.00 0.00 0.00 0.00 0.00 0.00 0.00 0.00 0.00 0.00 0.00 0.00 0.00 0.00 0.00 0.00 0.00 0.00 0.00 0.00 0.00 0.00 0.00 0.00 0.00 0.00 0.00 0.00 0.00 0.00 0.00 0.00 0.00
0.00 0.00 0.00 0.00 0.00 0.00 0.00 0.00 0.00 0.00 0.00 0.00 0.00 0.00 0.00 0.00 0.00 0.00 0.00 0.00 0.00 0.00 0.00 0.00 0.00 0.00 0.00 0.00 0.00 0.00 0.00 0.00 0.00 0.00 0.00 0.00 0.00 0.00 0.00 0.00 0.00 0.00 0.00 0.00 0.00
0.00 0.00 0.00 0.00 0.00 0.00 0.00 0.00 0.00 0.00 0.00 0.00 0.00 0.00 0.00 0.00 0.00 0.00 0.00 0.00 0.00 0.00 0.00 0.00 0.00 0.00 0.00 0.00 0.00 0.00 0.00 0.00 0.00 0.00 0.00 0.00 0.00 0.00 0.00 0.00 0.00 0.00 0.00 0.00 0.00
0.00 0.00 0.00 0.00 0.00 0.00 0.00 0.00 0.00 0.00 0.00 0.00 0.00 0.00 0.00 0.00 0.00 0.00 0.00 0.00 0.00 0.00 0.00 0.00 0.00 0.00 0.00 0.00 0.00 0.00 0.00 0.00 0.00 0.00 0.00 0.00 0.00 0.00 0.00 0.00 0.00 0.00 0.00 0.00 0.00
0.00 0.00 0.00 0.00 0.00 0.01 0.01 0.00 0.00 0.00 0.00 0.00 0.00 0.00 0.00 0.00 0.00 0.00 0.00 0.00 0.00 0.00 0.00 0.00 0.00 0.00 0.00 0.00 0.00 0.00 0.00 0.00 0.00 0.00 0.00 0.00 0.00 0.00 0.00 0.00 0.00 0.00 0.00 0.00 0.00
0.00 0.00 0.00 0.00 0.00 0.02 0.03 0.00 0.00 0.00 0.00 0.00 0.00 0.00 0.00 0.00 0.00 0.00 0.00 0.00 0.00 0.00 0.00 0.00 0.00 0.00 0.00 0.00 0.00 0.00 0.00 0.00 0.00 0.00 0.00 0.00 0.00 0.00 0.00 0.00 0.00 0.00 0.00 0.00 0.00
0.00 0.00 0.00 0.00 0.01 0.03 0.01 0.00 0.00 0.00 0.00 0.00 0.00 0.00 0.00 0.00 0.00 0.00 0.00 0.00 0.00 0.00 0.00 0.00 0.00 0.00 0.00 0.00 0.00 0.00 0.00 0.00 0.00 0.00 0.00 0.00 0.00 0.00 0.00 0.00 0.00 0.00 0.00 0.00 0.00
0.00 0.00 0.00 0.03 0.03 0.01 0.00 0.00 0.00 0.00 0.00 0.00 0.00 0.00 0.00 0.00 0.00 0.00 0.00 0.00 0.00 0.00 0.00 0.00 0.00 0.00 0.00 0.00 0.00 0.00 0.00 0.00 0.00 0.00 0.00 0.00 0.00 0.00 0.00 0.00 0.00 0.00 0.00 0.00 0.00
0.00 0.01 0.02 0.07 0.04 0.01 0.00 0.00 0.00 0.00 0.00 0.00 0.00 0.00 0.00 0.00 0.01 0.00 0.00 0.00 0.00 0.00 0.00 0.00 0.01 0.00 0.00 0.00 0.00 0.00 0.00 0.00 0.00 0.00 0.00 0.00 0.00 0.00 0.00 0.00 0.00 0.00 0.00 0.00 0.00
0.00 0.00 0.01 0.02 0.01 0.01 0.01 0.00 0.00 0.00 0.00 0.01 0.01 0.02 0.01 0.01 0.00 0.01 0.00 0.00 0.00 0.00 0.00 0.01 0.01 0.00 0.00 0.00 0.00 0.00 0.00 0.00 0.00 0.00 0.00 0.00 0.00 0.00 0.00 0.00 0.00 0.00 0.00 0.00 0.00
0.00 0.00 0.00 0.00 0.00 0.00 0.01 0.01 0.00 0.00 0.00 0.00 0.01 0.01 0.01 0.00 0.00 0.00 0.00 0.00 0.00 0.00 0.00 0.01 0.01 0.00 0.00 0.00 0.00 0.00 0.00 0.00 0.00 0.00 0.00 0.00 0.00 0.00 0.00 0.00 0.00 0.00 0.00 0.00 0.00
0.00 0.00 0.00 0.00 0.00 0.00 0.01 0.01 0.01 0.00 0.01 0.00 0.00 0.00 0.00 0.00 0.00 0.00 0.00 0.00 0.00 0.00 0.00 0.00 0.00 0.00 0.00 0.00 0.00 0.00 0.00 0.00 0.00 0.00 0.00 0.00 0.00 0.00 0.00 0.00 0.00 0.00 0.00 0.00 0.00
0.00 0.00 0.00 0.00 0.00 0.00 0.00 0.00 0.00 0.00 0.00 0.00 0.00 0.00 0.00 0.00 0.00 0.00 0.00 0.00 0.00 0.00 0.00 0.00 0.00 0.00 0.00 0.00 0.00 0.00 0.00 0.00 0.00 0.00 0.00 0.00 0.00 0.00 0.00 0.00 0.00 0.00 0.00 0.00 0.00
MSLP
1021.25 1020.92 1020.56 1020.24 1019.87 1019.51 1019.28 1019.04 1018.83 1018.62 1018.39 1018.12 1017.81 1017.53 1017.26 1016.93 1016.72 1016.61 1015.98 1014.29 1014.36 1014.72 1015.17 1015.58 1015.81 1015.85 1016.00 1016.31 1016.42 1016.88 1017.74 1017.50 1016.10 1014.81 1013.84 1013.30 1013.44 1013.20 1013.16 1013.47 1013.77 1013.89 1014.26 1014.55 1014.89
1021.42 1021.16 1020.85 1020.51 1020.11 1019.72 1019.32 1019.03 1018.86 1018.62 1018.38 1018.05 1017.79 1017.57 1017.31 1017.02 1016.66 1015.87 1013.88 1013.81 1014.01 1014.50 1015.10 1015.45 1015.75 1015.90 1016.28 1016.38 1016.53 1017.10 1017.64 1016.42 1014.85 1013.93 1013.53 1013.27 1013.32 1013.21 1013.45 1013.46 1013.76 1013.89 1014.25 1014.95 1015.46
1021.51 1021.20 1020.87 1020.55 1020.16 1019.71 1019.33 1019.08 1018.81 1018.55 1018.25 1018.00 1017.70 1017.40 1017.18 1017.03 1016.60 1014.41 1013.46 1013.66 1013.96 1014.30 1014.53 1015.00 1015.30 1015.81 1016.30 1016.26 1016.34 1016.58 1016.48 1015.41 1014.27 1013.73 1013.42 1013.29 1013.27 1013.11 1013.34 1013.40 1013.08 1013.35 1013.98 1015.14 1015.73
1021.54 1021.21 1020.84 1020.51 1020.14 1019.72 1019.32 1018.96 1018.66 1018.39 1018.17 1017.90 1017.63 1017.35 1017.04 1016.88 1015.91 1013.67 1013.68 1013.91 1014.12 1014.45 1014.63 1014.92 1015.39 1015.89 1016.05 1016.05 1015.63 1016.11 1015.13 1014.86 1013.99 1013.47 1013.45 1013.40 1013.21 1013.21 1013.14 1011.82 1011.97 1012.36 1012.99 1014.32 1015.02
1021.30 1021.08 1020.82 1020.46 1020.11 1019.66 1019.24 1018.81 1018.48 1018.25 1018.08 1017.83 1017.55 1017.34 1016.96 1016.62 1014.84 1013.47 1013.71 1014.11 1014.48 1014.65 1014.62 1014.89 1015.26 1015.43 1015.65 1015.39 1015.37 1015.34 1014.64 1014.36 1013.73 1013.68 1013.53 1013.47 1013.24 1013.27 1012.15 1011.59 1011.99 1012.24 1012.75 1013.38 1013.89
1021.26 1020.97 1020.71 1020.34 1019.94 1019.56 1019.11 1018.70 1018.30 1018.03 1017.80 1017.59 1017.40 1017.23 1017.21 1016.15 1013.36 1013.35 1013.63 1014.18 1014.25 1014.60 1014.61 1014.78 1014.74 1014.77 1015.18 1015.11 1015.20 1014.60 1014.52 1014.19 1013.79 1013.71 1013.67 1013.77 1013.14 1013.30 1010.33 1011.04 1011.59 1011.98 1012.22 1012.56 1012.73
1021.03 1020.84 1020.52 1020.20 1019.75 1019.26 1018.78 1018.37 1017.97 1017.70 1017.45 1017.28 1017.24 1017.20 1016.76 1014.16 1013.17 1013.63 1013.86 1013.91 1013.90 1014.14 1014.41 1014.55 1014.58 1014.89 1015.14 1015.07 1014.81 1014.82 1014.91 1014.26 1013.23 1013.23 1013.61 1013.60 1013.28 1012.40 1009.83 1011.11 1011.33 1011.37 1011.29 1011.55 1011.39
1020.71 1020.54 1020.22 1019.87 1019.50 1018.92 1018.28 1017.76 1017.34 1017.11 1016.95 1016.89 1016.86 1017.06 1015.64 1013.51 1013.46 1013.71 1013.92 1013.97 1014.00 1014.09 1014.29 1014.42 1014.53 1015.01 1015.41 1015.29 1015.27 1015.52 1015.51 1015.04 1012.78 1012.95 1013.07 1013.44 1011.83 1010.20 1010.18 1011.00 1010.88 1010.70 1010.84 1010.95 1010.39
1020.44 1020.27 1019.92 1019.58 1019.16 1018.57 1017.80 1017.07 1016.62 1016.36 1016.36 1016.58 1016.88 1016.62 1015.03 1013.60 1013.68 1013.33 1013.63 1013.97 1014.08 1014.31 1014.56 1014.75 1014.83 1015.39 1015.67 1016.02 1016.56 1016.27 1015.77 1015.13 1013.45 1012.63 1013.00 1013.16 1011.84 1009.70 1009.79 1010.52 1010.44 1010.27 1010.12 1010.00 1009.58
1020.15 1020.11 1019.75 1019.31 1018.88 1018.21 1017.41 1016.39 1016.10 1016.07 1016.40 1016.48 1016.31 1016.67 1014.22 1013.22 1013.02 1013.23 1013.47 1013.85 1014.28 1014.66 1015.04 1015.26 1015.82 1016.11 1016.34 1016.49 1016.33 1015.66 1015.99 1015.11 1014.30 1012.79 1013.05 1012.88 1011.51 1010.08 1009.66 1010.19 1010.05 1009.91 1009.43 1009.06 1008.70
1019.83 1019.77 1019.57 1019.17 1018.73 1018.11 1017.33 1016.53 1016.69 1016.79 1016.38 1015.47 1015.14 1014.25 1013.11 1012.81 1012.83 1013.13 1013.24 1013.83 1014.46 1015.05 1015.62 1015.86 1016.45 1015.93 1015.11 1015.04 1014.84 1015.44 1015.34 1015.04 1013.72 1012.82 1012.98 1012.23 1011.33 1010.51 1009.45 1009.29 1009.14 1008.97 1008.32 1007.78 1007.21
1019.44 1019.44 1019.36 1018.99 1018.51 1018.00 1017.84 1018.09 1018.44 1018.90 1017.21 1014.95 1014.22 1013.82 1012.47 1012.53 1013.00 1013.32 1013.46 1014.11 1014.60 1015.12 1015.51 1016.10 1015.48 1014.55 1014.72 1014.89 1015.20 1015.23 1015.08 1014.24 1012.97 1012.43 1012.76 1011.83 1010.21 1009.52 1009.23 1008.02 1007.45 1007.42 1006.66 1005.97 1005.49
1019.10 1019.14 1019.17 1018.98 1018.68 1018.23 1018.44 1018.60 1018.33 1018.57 1018.29 1014.97 1013.43 1012.82 1012.24 1012.33 1012.53 1012.96 1013.60 1013.98 1014.50 1015.13 1014.99 1014.64 1013.82 1013.76 1014.41 1014.71 1014.86 1014.14 1014.60 1013.33 1013.19 1012.89 1012.28 1011.47 1008.48 1008.85 1008.08 1006.85 1006.02 1005.33 1004.84 1004.60 1004.24
1018.88 1018.83 1019.03 1018.90 1019.00 1018.76 1018.44 1018.35 1018.32 1018.28 1018.16 1014.61 1012.98 1012.29 1012.13 1012.10 1012.88 1013.04 1013.28 1013.55 1014.36 1014.40 1014.98 1014.34 1013.14 1013.26 1013.49 1013.72 1013.61 1013.38 1012.83 1013.15 1013.36 1013.76 1012.96 1012.03 1004.99 1007.11 1007.13 1006.28 1005.35 1004.35 1003.54 1003.39 1003.20
1018.57 1018.55 1018.79 1018.95 1019.00 1018.80 1018.21 1018.23 1018.21 1018.36 1017.08 1013.33 1012.60 1012.25 1012.31 1012.58 1013.28 1013.43 1013.47 1013.68 1013.76 1013.87 1014.45 1013.14 1012.76 1012.88 1013.31 1012.14 1012.91 1012.11 1012.22 1012.91 1013.40 1013.69 1013.12 1012.16 1011.16 1006.22 1005.45 1005.34 1004.58 1003.51 1002.94 1002.41 1001.74
1018.01 1018.12 1018.53 1018.99 1019.12 1017.94 1017.85 1018.10 1018.36 1017.99 1015.77 1012.95 1012.14 1012.34 1012.69 1012.86 1013.31 1013.53 1013.37 1013.83 1014.41 1014.10 1013.63 1012.58 1011.89 1011.92 1011.36 1011.40 1012.19 1012.41 1012.95 1013.36 1014.09 1014.31 1012.22 1011.16 1010.76 1002.81 1004.94 1003.96 1003.21 1002.60 1002.09 1001.70 1001.12
1017.74 1017.87 1018.51 1018.32 1018.51 1017.83 1017.97 1018.00 1018.00 1016.40 1013.96 1012.59 1012.19 1012.46 1012.76 1013.19 1013.30 1013.53 1013.83 1013.98 1014.47 1014.64 1013.56 1012.44 1011.83 1010.97 1011.12 1011.70 1012.02 1012.55 1013.64 1014.80 1014.92 1015.02 1011.40 1009.21 1008.64 1002.83 1003.64 1002.74 1002.39 1002.06 1001.43 1000.70 1000.48
1017.38 1017.86 1017.72 1017.79 1017.76 1018.18 1018.08 1018.33 1016.17 1013.90 1013.25 1012.10 1012.22 1012.68 1012.90 1012.74 1012.78 1013.40 1013.75 1013.94 1013.99 1014.04 1013.83 1013.07 1010.57 1010.91 1010.75 1010.82 1010.80 1011.77 1012.76 1013.57 1013.45 1012.67 1010.33 1009.66 1006.21 1002.44 1001.58 1001.17 1001.15 1000.91 1001.02 1000.75 1000.35
1017.87 1017.48 1017.45 1017.18 1017.64 1017.96 1018.44 1017.22 1014.97 1013.23 1012.93 1012.56 1012.32 1012.36 1012.64 1012.41 1012.48 1012.93 1013.60 1013.10 1012.59 1012.73 1013.23 1012.57 1010.61 1010.31 1010.28 1010.37 1010.86 1011.22 1011.74 1011.20 1012.11 1011.56 1011.08 1007.50 1004.26 1002.55 1001.71 1001.43 1001.65 1001.21 1000.95 1000.97 1000.58
1018.00 1017.42 1016.72 1016.64 1017.00 1017.98 1018.08 1015.66 1014.43 1013.32 1012.63 1012.68 1012.55 1012.41 1012.39 1012.41 1012.65 1012.73 1012.47 1011.85 1011.71 1011.64 1011.61 1011.44 1010.89 1009.76 1010.17 1010.41 1010.66 1010.61 1010.52 1011.05 1011.75 1011.99 1009.86 1006.63 1004.53 1001.93 1001.71 1001.22 1001.21 1001.56 1001.03 1000.65 1000.75
1018.29 1017.35 1016.00 1015.89 1016.77 1017.24 1016.10 1014.55 1013.58 1013.12 1013.06 1012.77 1012.32 1012.32 1011.76 1012.26 1012.19 1012.22 1011.67 1011.21 1011.44 1011.12 1011.35 1011.79 1012.34 1010.30 1011.01 1010.22 1009.85 1010.86 1010.29 1010.45 1010.11 1009.50 1007.75 1005.84 1003.77 1000.16 1000.84 1000.89 1000.87 1000.94 1001.10 1000.98 1000.82
1018.01 1017.17 1015.75 1015.95 1016.64 1015.64 1014.72 1014.02 1013.69 1013.06 1013.12 1012.67 1012.41 1012.39 1012.08 1011.93 1011.78 1011.90 1011.05 1010.70 1010.72 1011.04 1011.17 1011.34 1011.91 1011.66 1010.23 1009.76 1009.74 1010.30 1009.58 1009.11 1008.42 1007.03 1005.76 1004.42 1002.71 1000.91 999.54 999.81 1000.16 1000.19 1000.64 1000.12 1000.00
1018.05 1016.68 1015.92 1015.81 1015.17 1015.13 1014.44 1013.67 1013.42 1013.25 1013.14 1012.89 1012.56 1012.32 1012.28 1011.88 1012.05 1011.04 1010.52 1010.38 1010.62 1011.09 1011.22 1011.67 1011.52 1011.18 1010.65 1010.50 1008.88 1008.85 1007.93 1008.10 1007.09 1005.96 1004.48 1003.06 1000.86 999.65 999.77 999.09 998.94 999.36 999.71 999.72 999.88
1018.66 1017.28 1016.02 1015.56 1015.11 1014.89 1014.41 1013.36 1013.38 1012.94 1012.88 1013.02 1012.95 1012.69 1012.66 1012.61 1011.79 1011.22 1010.86 1010.75 1010.77 1010.63 1011.06 1011.26 1011.15 1010.16 1009.47 1008.68 1008.47 1007.81 1006.67 1006.32 1006.11 1005.14 1003.05 1001.53 1000.53 1000.50 998.85 998.46 997.33 998.67 999.01 999.73 999.87
1019.12 1017.62 1016.68 1015.65 1015.44 1015.03 1015.13 1014.11 1013.68 1013.16 1013.07 1013.08 1013.06 1013.26 1013.74 1013.25 1012.87 1012.07 1012.77 1012.97 1012.52 1012.13 1011.49 1010.96 1010.03 1009.46 1008.57 1008.08 1007.88 1006.88 1006.06 1005.47 1004.82 1003.11 1002.34 1000.85 999.93 999.84 998.76 997.36 997.11 998.42 998.73 999.60 999.56
1019.49 1018.54 1017.84 1016.85 1016.36 1015.78 1015.14 1014.43 1014.68 1014.15 1014.35 1013.74 1014.11 1015.04 1015.38 1015.02 1015.26 1014.99 1014.98 1015.04 1014.56 1013.33 1013.44 1012.91 1011.05 1009.95 1008.71 1008.87 1007.69 1006.70 1005.43 1004.49 1003.50 1002.74 1001.48 1000.84 999.65 999.43 998.28 998.24 998.22 998.21 999.21 1000.04 999.42
1019.35 1019.12 1018.65 1017.53 1017.00 1016.76 1016.12 1015.78 1015.81 1015.62 1015.49 1015.38 1015.79 1016.06 1016.17 1016.28 1016.14 1016.27 1016.44 1015.93 1015.68 1015.33 1013.81 1013.83 1012.33 1011.03 1008.56 1009.15 1008.08 1006.52 1005.45 1004.40 1003.32 1002.66 1002.08 1001.15 999.42 1000.00 1000.02 999.82 999.52 1000.03 1001.17 1001.82 1002.08
Thickness
5705 5709 5713 5716 5720 5723 5725 5727 5729 5731 5732 5734 5736 5739 5741 5743 5744 5743 5741 5758 5758 5756 5752 5747 5743 5740 5737 5730 5731 5723 5693 5685 5704 5717 5725 5736 5731 5739 5740 5735 5734 5735 5732 5732 5726
5700 5703 5706 5710 5713 5717 5721 5724 5725 5727 5729 5731 5733 5735 5737 5739 5741 5740 5762 5761 5759 5755 5747 5739 5732 5732 5720 5723 5721 5706 5684 5700 5720 5732 5729 5733 5728 5733 5730 5728 5727 5731 5730 5723 5720
5695 5698 5701 5704 5708 5713 5716 5718 5720 5722 5725 5727 5730 5732 5734 5735 5733 5745 5760 5758 5755 5752 5747 5741 5736 5726 5716 5718 5713 5707 5697 5711 5725 5731 5730 5729 5726 5729 5724 5716 5727 5728 5728 5716 5713
5689 5693 5697 5700 5703 5707 5711 5714 5716 5718 5720 5722 5724 5726 5730 5732 5710 5752 5753 5750 5748 5744 5740 5734 5726 5714 5709 5707 5714 5705 5713 5716 5725 5729 5725 5720 5725 5722 5720 5737 5739 5735 5733 5719 5714
5684 5686 5690 5694 5698 5702 5705 5708 5711 5713 5715 5716 5718 5720 5724 5722 5725 5749 5747 5742 5739 5735 5730 5723 5716 5710 5704 5707 5710 5705 5714 5716 5720 5717 5715 5716 5713 5714 5724 5729 5729 5732 5727 5721 5719
5676 5679 5682 5686 5691 5694 5699 5703 5706 5708 5710 5711 5713 5714 5715 5706 5746 5743 5741 5736 5733 5728 5724 5718 5713 5711 5705 5705 5698 5710 5710 5709 5712 5712 5708 5704 5708 5710 5744 5731 5726 5724 5723 5720 5723
5670 5673 5676 5680 5685 5690 5694 5698 5701 5703 5705 5705 5705 5705 5707 5720 5742 5737 5732 5730 5730 5725 5717 5715 5712 5703 5700 5697 5702 5700 5691 5697 5714 5709 5696 5695 5696 5703 5739 5724 5721 5722 5724 5721 5725
5664 5666 5670 5674 5679 5684 5690 5695 5699 5700 5702 5701 5700 5697 5699 5732 5731 5728 5725 5723 5722 5720 5715 5711 5706 5694 5689 5692 5683 5680 5679 5672 5713 5701 5697 5689 5692 5727 5724 5712 5717 5717 5720 5715 5724
5658 5660 5664 5668 5672 5678 5684 5691 5696 5698 5698 5694 5691 5689 5695 5722 5718 5722 5720 5714 5712 5710 5705 5701 5693 5679 5681 5666 5651 5659 5646 5652 5683 5699 5686 5677 5680 5726 5722 5706 5710 5714 5712 5717 5721
5652 5653 5657 5661 5665 5672 5679 5688 5690 5691 5688 5686 5686 5678 5698 5704 5714 5714 5713 5707 5700 5694 5688 5683 5663 5655 5658 5652 5636 5646 5633 5647 5660 5696 5676 5661 5673 5703 5713 5702 5701 5707 5709 5709 5716
5644 5645 5648 5653 5657 5663 5671 5677 5676 5675 5679 5683 5682 5687 5700 5705 5707 5705 5705 5697 5689 5680 5665 5663 5644 5649 5673 5662 5670 5655 5643 5641 5664 5683 5665 5661 5664 5680 5704 5701 5698 5702 5713 5716 5714
5636 5638 5638 5643 5648 5653 5656 5653 5650 5647 5654 5677 5681 5680 5696 5696 5687 5689 5693 5679 5671 5661 5661 5650 5641 5671 5667 5663 5650 5645 5641 5647 5664 5677 5650 5654 5662 5676 5683 5705 5714 5709 5718 5722 5727
5627 5628 5628 5630 5634 5640 5639 5638 5640 5638 5631 5660 5676 5678 5684 5687 5681 5681 5676 5668 5659 5649 5654 5656 5662 5667 5658 5650 5647 5647 5636 5651 5642 5650 5648 5641 5655 5661 5677 5698 5716 5721 5723 5726 5727
5615 5617 5617 5618 5620 5622 5626 5627 5628 5632 5614 5641 5663 5674 5678 5679 5670 5668 5665 5663 5650 5648 5641 5640 5666 5661 5648 5644 5653 5641 5656 5645 5639 5627 5621 5644 5660 5672 5676 5685 5698 5709 5718 5721 5725
5604 5606 5606 5604 5605 5608 5617 5616 5618 5619 5586 5646 5652 5664 5664 5661 5653 5654 5654 5652 5644 5648 5643 5648 5656 5646 5639 5659 5643 5649 5652 5641 5636 5617 5610 5611 5605 5658 5676 5678 5686 5704 5708 5718 5728
5596 5597 5595 5591 5591 5601 5603 5603 5604 5600 5583 5630 5642 5640 5643 5645 5641 5639 5639 5638 5631 5631 5631 5642 5655 5647 5649 5651 5639 5638 5632 5623 5604 5603 5616 5627 5623 5674 5652 5671 5684 5698 5709 5713 5722
5587 5584 5580 5582 5586 5589 5587 5590 5587 5579 5618 5625 5629 5625 5624 5622 5624 5621 5620 5615 5607 5607 5611 5628 5629 5641 5639 5630 5629 5626 5607 5576 5571 5560 5611 5638 5624 5682 5670 5677 5680 5684 5689 5707 5714
5575 5571 5574 5576 5579 5572 5573 5571 5574 5601 5605 5625 5623 5613 5608 5611 5612 5603 5600 5603 5602 5603 5593 5600 5628 5625 5630 5629 5621 5608 5604 5575 5555 5594 5627 5601 5610 5662 5681 5687 5682 5681 5682 5687 5688
5554 5559 5563 5564 5562 5559 5557 5563 5574 5598 5601 5605 5605 5599 5593 5598 5600 5592 5581 5589 5599 5596 5585 5576 5602 5616 5613 5618 5615 5603 5585 5614 5562 5491 5528 5611 5638 5665 5663 5664 5664 5670 5670 5665 5673
5532 5542 5554 5547 5543 5538 5535 5564 5572 5586 5591 5587 5581 5584 5579 5585 5580 5579 5582 5594 5593 5588 5589 5587 5575 5614 5600 5600 5596 5590 5595 5572 5547 5535 5529 5586 5604 5631 5655 5659 5657 5653 5652 5656 5658
5512 5522 5541 5535 5520 5514 5537 5559 5570 5575 5573 5565 5569 5569 5578 5570 5568 5570 5575 5579 5580 5587 5575 5564 5547 5585 5573 5576 5595 5565 5562 5563 5559 5552 5565 5564 5587 5666 5643 5641 5636 5644 5639 5639 5641
5501 5509 5523 5517 5509 5513 5532 5543 5550 5556 5553 5550 5546 5549 5553 5561 5553 5552 5558 5569 5573 5568 5557 5549 5530 5529 5560 5575 5564 5554 5558 5567 5558 5566 5566 5564 5567 5642 5656 5640 5636 5639 5630 5635 5636
5486 5500 5502 5500 5507 5512 5517 5527 5530 5537 5533 5528 5527 5532 5539 5538 5525 5545 5550 5564 5558 5547 5542 5532 5511 5516 5511 5537 5555 5543 5564 5555 5563 5558 5551 5548 5565 5639 5634 5638 5638 5622 5618 5621 5616
5460 5473 5484 5484 5495 5496 5506 5517 5512 5522 5516 5511 5511 5514 5512 5511 5523 5519 5528 5537 5534 5533 5530 5519 5515 5516 5522 5544 5552 5538 5549 5557 5550 5536 5549 5549 5560 5586 5621 5626 5645 5624 5614 5609 5603
5435 5449 5457 5469 5478 5476 5479 5485 5492 5497 5496 5501 5493 5495 5483 5489 5488 5493 5481 5469 5486 5501 5507 5508 5502 5508 5509 5522 5530 5534 5540 5545 5539 5549 5536 5552 5551 5564 5592 5613 5621 5604 5603 5585 5585
5409 5417 5423 5435 5439 5447 5458 5470 5467 5470 5466 5476 5466 5435 5437 5441 5439 5440 5443 5443 5448 5464 5460 5455 5472 5477 5481 5486 5490 5495 5513 5523 5530 5536 5538 5541 5538 5560 5572 5579 5580 5589 5581 5562 5562
5389 5395 5397 5412 5412 5410 5416 5430 5436 5423 5429 5434 5423 5410 5416 5417 5411 5413 5413 5419 5418 5423 5439 5435 5442 5445 5453 5469 5466 5469 5492 5504 5512 5523 5525 5515 5540 5541 5534 5539 5549 5550 5521 5501 5496